Location: Eppenberg
(48.4833°N, 15.3500°E)
Time: 17:38:57
(UTC+00:00)

Daily predictions for brighter satellites

Satellite Brightness Start Highest point End
(mag) Time Altitude Azimuth Time Altitude Azimuth Time Altitude Azimuth
Okean O Rocket 3.3 17:09:53 10° SSW 17:13:58 40° W 17:18:05 10° NNW
Cosmos 1980 Rocket 3.1 17:12:06 10° SW 17:17:38 53° NW 17:23:14 10° NNE
Cosmos 1500 4.4 17:15:05 10° SE 17:17:51 20° E 17:20:38 10° NE
SL-08 RB Rocket 4.5 17:15:53 10° SE 17:19:52 32° ENE 17:23:55 10° N
CZ-2D R/B 3.7 17:16:22 10° S 17:20:08 66° W 17:23:57 10° NNW
SJ-11-01 4.3 17:19:51 10° SSE 17:24:27 61° ENE 17:29:06 10° N
Cosmos 1689 Rocket 2.9 17:22:21 10° NE 17:24:53 27° E 17:27:24 10° SSE
ERBS 2.5 17:22:11 10° WSW 17:25:30 69° NNW 17:28:48 10° NE
Cosmos 1666 Rocket 3.5 17:22:47 10° S 17:27:06 78° E 17:31:27 10° NNE
Cosmos 1862 Rocket 3.6 17:23:41 10° N 17:28:10 63° ENE 17:32:36 10° SSE
BREEZE-M DEB (TANK) 3.9 17:23:25 10° SSW 17:28:23 24° SSE 17:30:49 11° E
CZ-2C R/B 3.9 17:23:11 10° S 17:28:52 63° W 17:34:20 10° NNW
Cosmos 2322 Rocket 2.3 17:26:09 10° S 17:31:35 55° ESE 17:37:04 10° NE
Aureole 2 Rocket 2.0 17:30:06 10° N 17:32:33 40° ENE 17:34:55 10° SE
Cosmos 2242 Rocket 4.4 17:29:37 10° N 17:33:40 31° ENE 17:37:39 10° SE
Sich 1 3.9 17:30:23 10° SSW 17:34:42 56° WNW 17:39:05 10° N
Nadezhda 3 Rocket 4.0 17:29:02 10° N 17:35:24 67° ENE 17:41:44 10° SSE
Cosmos 1461 3.5 17:32:14 10° SW 17:36:58 70° NW 17:41:43 10° NE
ATLAS 5 CENTAUR R/B 3.9 17:23:22 10° WSW 17:37:38 57° NW 17:41:34 10° NE
Meteor 1-25 Rocket 4.3 17:32:50 10° S 17:38:37 84° E 17:44:20 10° NNE
COSMOS 2428 4.2 17:39:50 10° ESE 17:42:19 13° E 17:42:30 13° E
Cosmos 2074 Rocket 4.1 17:36:25 10° S 17:42:42 84° W 17:48:59 10° N
Cosmos 2154 Rocket 4.0 17:36:47 10° S 17:42:55 67° E 17:49:05 10° NNE
YAOGAN 1 2.6 17:39:30 10° SSE 17:43:50 83° WSW 17:48:11 10° NNW
Helios 1A Rocket 2.9 17:40:02 10° SSE 17:44:00 60° ENE 17:48:00 10° N
Abrixas rocket 1.4 17:41:57 10° WSW 17:44:26 80° S 17:45:57 21° E
FALCON 9 DEB 4.1 17:43:19 10° WNW 17:46:16 34° N 17:48:34 15° ENE
Meteor 1-14 Rocket 4.3 17:41:01 10° S 17:46:23 51° E 17:51:44 10° NNE
Cosmos 1610 Rocket 4.5 17:40:29 10° S 17:46:37 71° E 17:52:53 10° NNE
COSMO-SKYMED 1 3.7 17:45:00 10° N 17:49:11 47° WNW 17:53:20 10° SW
Cosmos 2219 Rocket 3.5 17:45:48 10° SE 17:49:23 18° E 17:53:00 10° ENE
SJ-6B 4.0 17:46:54 13° ESE 17:49:35 25° ENE 17:52:55 10° N
GP-B 3.4 17:47:11 10° SSE 17:51:23 43° E 17:55:36 10° N
Cosmos 2263 Rocket 4.1 17:50:09 10° NW 17:55:00 31° WSW 17:59:50 10° SSW
Cosmos 1992 Rocket 3.9 17:50:14 10° SSW 17:55:25 71° ESE 18:00:39 10° NNE
Meteor 1-18 Rocket 4.4 17:49:41 10° NNW 17:55:40 87° W 18:01:35 10° S
Cosmos 968 Rocket 4.3 17:50:51 10° NNW 17:56:01 55° WSW 18:01:08 10° S
SL-16 R/B 2.3 17:50:26 10° SSW 17:56:07 82° WNW 18:01:51 10° NNE
ARGOS 3.2 17:51:29 10° SSE 17:56:55 88° WSW 18:02:24 10° NNW
USA 234 3.8 17:52:32 11° ENE 17:58:22 37° SE 18:04:21 10° SSW
FALCON 9 DEB 4.1 17:55:52 10° WNW 17:58:49 34° N 18:00:32 20° ENE
Cosmos 1515 4.3 17:56:08 10° NNW 17:59:55 60° W 18:03:40 10° S
Okean 1 3.8 17:56:00 10° NNW 18:00:00 65° W 18:04:00 10° S
SeaSat 1 2.5 17:57:02 10° NE 18:01:55 56° ESE 18:06:45 10° SSW
SJ 16-02 3.0 17:59:13 10° NNE 18:01:58 16° NE 18:02:34 16° ENE
Cosmos 1633 Rocket 3.9 17:58:53 10° SSW 18:03:13 55° WNW 18:07:36 10° N
OBJECT-B 2.1 18:03:20 23° ENE 18:03:20 23° ENE 18:05:52 10° NNE
Okean 1-7 3.2 17:59:19 10° N 18:03:36 49° ENE 18:07:48 10° SSE
CZ-2C R/B 2.6 18:01:56 10° NNE 18:07:26 67° ESE 18:12:46 10° S
H-2A R/B 3.1 18:03:05 10° S 18:08:23 52° W 18:13:43 10° NNW
CZ-4 R/B 3.0 18:04:48 10° SSW 18:08:24 36° W 18:12:03 10° NNW
Cosmos 2322 4.4 18:03:52 10° SSE 18:08:50 32° ESE 18:13:51 10° NE
SAR-Lupe-4 3.6 18:06:25 10° NNE 18:10:01 80° WNW 18:13:35 10° SSW
USA 305 3.9 18:08:19 10° WNW 18:12:21 39° N 18:14:50 20° NE
DMSP B5D2-2 4.2 18:08:43 10° NNE 18:13:50 50° E 18:18:52 10° S
SL-8 Rocket 4.1 18:08:57 10° SSE 18:14:54 49° E 18:20:50 10° NNE
Gbstr 26 Del rocket 3.6 18:10:37 10° W 18:15:04 60° N 18:18:26 22° ENE
Cosmos 2237 4.1 18:09:41 10° SSW 18:15:24 79° ESE 18:21:10 10° NNE
Cosmos 962 Rocket 4.4 18:10:46 10° S 18:16:55 72° E 18:23:13 10° NNE
SL-4 R/B 1.7 18:14:02 10° WNW 18:17:33 63° NNE 18:18:38 38° E
Cosmos 1869 Rocket 4.0 18:15:55 10° SSE 18:19:55 37° E 18:24:00 10° NNE
USA 307 3.9 18:19:39 10° WNW 18:23:41 39° N 18:25:41 24° NE
USA 186 2.3 18:25:07 32° N 18:25:07 32° N 18:26:40 10° N
ATLAS CENTAUR R/B 0.9 18:21:33 10° SSW 18:25:10 77° SE 18:26:56 28° NE
FALCON 9 DEB 3.4 18:21:48 10° WNW 18:25:11 61° SSW 18:26:13 39° SSE
Cosmos 1339 Rocket 4.4 18:20:09 10° N 18:26:21 70° ENE 18:32:36 10° SSE
Cosmos 1354 Rocket 4.3 18:21:17 10° NNW 18:26:31 68° WSW 18:31:42 10° S
USA 306 3.9 18:23:05 10° WNW 18:27:07 39° N 18:28:56 26° NE
ERS-2 3.2 18:23:42 10° N 18:27:14 47° WNW 18:30:45 10° SW
Okean-O 4.5 18:24:17 10° SSW 18:28:16 32° W 18:32:17 10° NNW
FALCON 9 DEB 3.8 18:26:27 10° WNW 18:29:26 37° N 18:29:48 36° NNE
CSL-04 Rocket 4.2 18:23:59 10° S 18:29:27 61° WSW 18:34:56 10° NNW
Cosmos 2366 rocket 4.1 18:23:49 10° SSE 18:29:53 52° E 18:36:02 10° NNE
Cosmos 1378 4.1 18:26:39 10° N 18:29:16 29° NE 18:29:16 29° NE
Cosmos 1844 Rocket 2.9 18:24:49 10° NNW 18:30:23 71° WSW 18:35:55 10° SSE
FALCON 9 DEB 3.8 18:28:21 10° WNW 18:31:22 36° N 18:31:45 35° NNE
Cosmos 1666 2.4 18:30:37 10° S 18:34:19 73° E 18:38:03 10° NNE
USA 308 3.9 18:30:18 10° WNW 18:34:20 39° N 18:35:51 28° NE
Cosmos 1777 Rocket 3.9 18:30:01 10° NNW 18:35:17 70° ENE 18:37:59 29° SE
Cosmos 2341 Rocket 4.0 18:32:00 10° S 18:38:19 89° ESE 18:44:38 10° N
SPOT 3 Rocket 4.2 18:37:59 34° ENE 18:38:33 35° ENE 18:43:15 10° N
Meteor 1-5 Rocket 4.0 18:33:18 10° S 18:38:41 88° E 18:44:15 10° NNE
Cosmos 2333 4.2 18:33:46 10° S 18:39:18 59° ESE 18:44:54 10° NE
Okean 3 3.4 18:37:56 10° N 18:42:10 62° ENE 18:42:57 51° SE
Cosmos 1844 4.0 18:36:27 10° NNW 18:42:12 71° WSW 18:46:58 15° SSE
Ariane Rocket 2.9 18:42:04 28° SSE 18:44:47 71° ENE 18:49:53 10° N
Cosmos 2360 Rocket 2.3 18:39:51 10° SSW 18:45:30 75° WNW 18:51:13 10° NNE
Cosmos 2221 Rocket 4.3 18:42:16 10° N 18:45:39 36° NE 18:45:39 36° NE
Cosmos 2278 Rocket 2.8 18:42:34 10° NNW 18:47:51 37° NE 18:48:36 36° ENE
Cosmos 1727 Rocket 4.0 18:44:14 10° N 18:50:21 59° ENE 18:52:57 34° SE
Meteor 2-20 4.5 18:46:16 10° N 18:52:17 55° ENE 18:54:04 41° SE
Cosmos 1703 Rocket 4.5 18:49:39 10° NNW 18:53:54 49° W 18:58:06 10° SSW
Cosmos 2333 Rocket 2.1 18:49:58 10° SSW 18:55:34 63° ESE 19:01:14 10° NNE
Cosmos 2218 Rocket 3.9 18:50:29 10° S 18:56:53 82° E 19:03:19 10° N
ERBS 4.3 18:59:27 10° WNW 19:02:07 22° NNW 19:02:18 22° N
Cosmos 1943 Rocket 4.1 19:03:27 10° N 19:06:45 15° NE 19:06:52 15° NE
Resurs 01 Rocket 2.4 19:12:41 42° NNE 19:12:41 42° NNE 19:15:47 10° N
Cosmos 864 Rocket 4.5 19:07:31 10° S 19:13:41 82° W 19:19:57 10° N
Cosmos 2322 Rocket 3.9 19:11:01 10° WSW 19:15:57 31° NW 19:20:55 10° NNE
Lacrosse 4 Rocket 3.4 19:13:07 10° SSW 19:14:29 20° SSW 19:14:29 20° SSW
SME Rocket 4.3 19:08:56 10° NNE 19:17:32 80° WNW 19:23:00 10° SSW
SJ-6B 4.4 19:22:30 25° SW 19:24:05 35° W 19:27:50 10° NNW
COSMOS 2428 2.7 19:19:57 10° SSW 19:32:11 - NNE 19:24:51 66° S
ASTEX 1 3.9 19:22:04 10° N 19:26:53 58° W 19:30:11 20° SSW
Meteor 1-23 Rocket 4.2 19:24:01 10° NNW 19:29:37 79° W 19:30:27 64° SSW
Meteor 1-11 Rocket 4.1 19:26:50 10° SSW 19:32:29 61° WNW 19:38:04 10° N
Cosmos 2219 Rocket 2.1 19:27:01 10° SSW 19:32:37 81° WNW 19:38:17 10° NNE
OBJECT-B 3.5 19:36:24 20° WNW 19:36:24 20° WNW 19:38:05 10° NW
Resurs 1-3 4.5 19:38:47 47° W 19:38:47 47° W 19:42:46 10° NNW
SeaSat 1 4.3 19:34:58 10° NNE 19:39:11 29° NW 19:43:23 10° WSW
Terra 4.2 19:42:56 13° NNE 19:42:56 13° NNE 19:43:37 10° N
SJ 16-02 2.5 19:36:42 10° NNW 19:39:35 40° NNW 19:39:35 40° NNW
USA 234 3.2 19:39:54 50° NE 19:41:47 81° NNW 19:48:20 10° WSW
USA 281 4.4 19:47:39 27° NE 19:47:39 27° NE 19:52:23 10° N
Meteor 2-20 Rocket 4.4 19:43:01 10° NNW 19:49:08 80° W 19:49:08 80° W
Cosmos 2369 Rocket 4.2 19:48:14 10° N 19:50:42 17° NNE 19:50:42 17° NNE
BREEZE-M DEB (TANK) 4.0 19:49:29 10° WNW 19:51:09 36° W 19:51:09 36° W
Gbstr 26 Del rocket 4.3 19:57:25 10° WNW 20:00:59 49° WNW 20:00:59 49° WNW
ATLAS CENTAUR R/B 4.1 20:01:57 10° WNW 20:03:11 15° WNW 20:03:11 15° WNW
Cosmos 2278 Rocket 3.5 20:26:41 10° NW 20:30:28 35° WNW 20:30:28 35° WNW
Cosmos 2333 Rocket 4.0 20:35:24 10° WSW 20:40:17 28° NW 20:45:13 10° NNE
Cosmos 1943 Rocket 4.1 20:46:10 10° NNW 20:48:24 24° NNW 20:48:24 24° NNW
Cosmos 2219 Rocket 4.5 21:13:33 10° W 21:17:30 19° NW 21:21:30 10° N
